Flag Weather past 2 weeks in Majuro, Marshall Islands

Now
85 °F

Broken clouds.


Feels Like: 97 °F
Forecast: 83 / 87 °F
Wind: 14 mph from East

Location: Majuro Atoll

Current Time: Nov 28, 2014 at 6:26:47 PM

Latest Report: Nov 28, 2014 at 5:56 PM


Visibility: 15 mi

Pressure: 29.68 "Hg

Humidity: 81%

Dew point: 79 °F

Location of MajuroLocation

Historic Weather in Majuro — Graph

°F

Majuro temperature yesterday

Maximum temperature yesterday: 86 °F (at 1:50 PM)
Minimum temperature yesterday: 78 °F (at 6:51 PM)
Average temperature yesterday: 83 °F

Past Weeks' High & Low Weather Summary

 TemperatureHumidityPressure
High88 °F (Nov 17, 2:53 PM)94% (Nov 27, 6:03 PM)29.93 "Hg (Nov 27, 6:03 PM)
Low74 °F (Nov 20, 11:51 PM)68% (Nov 16, 11:51 AM)29.65 "Hg (Nov 26, 4:52 PM)
Average84 °F79%29.79 "Hg
* Reported Nov 13 4:51 PM — Nov 28 4:52 PM, Majuro, Weather by CustomWeather, © 2014

Note: Actual official high and low records may vary slightly from our data, if they occured in-between our weather recording intervals... More about our weather records

Advertising

Majuro weather history for previous 24 hours

 ConditionsComfort  
Time TempWeatherWind HumidityBarometerVisibility
4:52 PM
Nov 28
86 °FCloudy.13 mph78%29.67 "Hg15 mi
3:50 PM87 °FCloudy.13 mph77%29.66 "Hg15 mi
2:50 PM88 °FScattered clouds.14 mph75%29.65 "Hg15 mi
1:52 PM88 °FScattered clouds.13 mph76%29.68 "Hg15 mi
12:52 PM88 °FPartly sunny.13 mph75%29.70 "Hg15 mi
11:58 AM87 °FMore clouds than sun.15 mph76%29.71 "Hg15 mi
10:53 AM85 °FMostly cloudy.14 mph79%29.72 "Hg15 mi
9:51 AM83 °FMostly cloudy.10 mph84%29.75 "Hg15 mi
8:51 AM82 °FCloudy.14 mph84%29.76 "Hg15 mi
7:53 AM82 °FCloudy.16 mph86%29.76 "Hg15 mi
6:53 AM82 °FLight rain. Overcast.10 mph87%29.72 "Hg14 mi
5:52 AM81 °FLight rain. Overcast.14 mph85%29.72 "Hg14 mi
4:51 AM80 °FLight rain. Overcast.15 mph89%29.75 "Hg14 mi
3:52 AM80 °FLight rain. Overcast.18 mph86%29.75 "Hg14 mi
2:53 AM79 °FLight rain. Overcast.12 mph87%29.73 "Hg14 mi
1:52 AM81 °FSprinkles. Overcast.12 mph91%29.73 "Hg14 mi
12:51 AM80 °FLight rain. Overcast.9 mph89%29.75 "Hg14 mi
11:53 PM
Nov 27
80 °FLight rain. Overcast.8 mph91%29.76 "Hg14 mi
10:51 PM80 °FSprinkles. Overcast.20 mph93%29.78 "Hg12 mi
9:52 PM81 °FLight rain. Overcast.16 mph90%29.78 "Hg14 mi
8:53 PM80 °FLight rain. Overcast.15 mph92%29.78 "Hg14 mi
7:51 PM78 °FSprinkles. Overcast.17 mph91%29.76 "Hg12 mi
6:51 PM78 °FSprinkles. Cloudy.15 mph92%29.75 "Hg10 mi
6:03 PM79 °FLots of rain. Mostly cloudy.21 mph94%29.72 "Hg1 mi
Weather by CustomWeather, © 2014

See weather overviewHow to use our weather pages